Miscellaneous Local Product
Issued by NWS Hastings, NE

Home | Current Version | Previous Version | Text Only | Print | Product List | Glossary Off
Versions: 1 2 3 4 5 6 7 8 9 10 11 12 13 14 15 16 17 18 19 20 21 22 23 24 25 26 27 28 29 30 31 32 33 34 35 36 37 38 39 40 41 42 43 44 45 46 47 48 49 50

632
AXUS43 KGID 190302
MISGRI

GID CWA HOURLY WEATHER ROUNDUP
NATIONAL WEATHER SERVICE HASTINGS NE
900 PM CST WED JAN 18 2017

NOTE: "FAIR" INDICATES FEW OR NO CLOUDS BELOW 12,000 FEET WITH NO
SIGNIFICANT WEATHER AND/OR OBSTRUCTIONS TO VISIBILITY.

...SOUTH CENTRAL NEBRASKA...

CITY           SKY/WX    TMP DP  RH WIND       PRES   REMARKS
GRAND ISLAND   CLEAR     37  36  96 S10       29.83F WCI  30
HASTINGS       CLEAR     40  35  83 S6        29.83F
KEARNEY        CLEAR     36  34  93 S6        29.81F WCI  31
ORD            CLEAR     37  34  89 S5        29.78F WCI  33
YORK           MOCLDY    39  36  87 S10       29.84F WCI  32
AURORA         CLEAR     41  36  81 S9        29.83S
LEXINGTON      CLEAR     37  34  88 SE7       29.79F WCI  32
HOLDREGE       CLEAR     36  33  90 S5        29.80F WCI  32
HEBRON         CLEAR     40  34  80 S8        29.88S WCI  34

...NEBRASKA PANHANDLE...

CITY           SKY/WX    TMP DP  RH WIND       PRES   REMARKS
CHADRON        CLOUDY    26  22  84 SW8       29.64F WCI  18
ALLIANCE       CLOUDY    28  24  85 S5        29.67F WCI  23
SCOTTSBLUFF    CLOUDY    32  23  69 CALM      29.69F
SIDNEY         CLOUDY    30  26  85 W12       29.71F WCI  20

...WESTERN AND NORTH CENTRAL NEBRASKA...

CITY           SKY/WX    TMP DP  RH WIND       PRES   REMARKS
VALENTINE      CLOUDY    34  24  67 SW10      29.68F WCI  26
AINSWORTH      CLEAR     36  28  73 S14       29.70F WCI  27
ONEILL         CLEAR     38  36  92 S10       29.75F WCI  31
BROKEN BOW     PTCLDY    35  33  92 CALM      29.76F
IMPERIAL       CLOUDY    29  26  89 SE3       29.74F
NORTH PLATTE   CLEAR     31  27  85 E5        29.76F WCI  26
MCCOOK         CLOUDY    35  34  96 S6        29.78F WCI  30

...EASTERN NEBRASKA...

CITY           SKY/WX    TMP DP  RH WIND       PRES   REMARKS
NORFOLK        CLEAR     37  35  92 S7        29.81F WCI  32
SO SIOUX CITY  CLEAR     40  36  86 SE9       29.84F WCI  34
TEKAMAH        CLEAR     35  33  92 SE10      29.88S WCI  27
COLUMBUS       CLEAR     39  34  81 S8        29.85S WCI  34
ALBION         PTCLDY    37  35  92 S5        29.81F WCI  33
OMAHA EPPLEY   PTCLDY    40  34  79 S12       29.89F WCI  33
OFFUTT AFB     CLEAR     40  39  99 SE9       29.89F WCI  34
MILLARD        CLEAR     41  36  81 SE5       29.89F
LINCOLN        CLEAR     36  33  89 S8        29.89S WCI  30
NEBRASKA CITY  CLEAR     38  33  82 S13       29.92S WCI  30
BEATRICE       CLEAR     40  34  77 SE7       29.90R
FALLS CITY     CLEAR     35  33  92 SE6       29.93F WCI  30

...NORTHERN KANSAS...

CITY           SKY/WX    TMP DP  RH WIND       PRES   REMARKS
GOODLAND       CLOUDY    36  30  79 S7        29.75F WCI  30
HILL CITY      CLOUDY    43  40  89 S8        29.81F
NORTON         CLOUDY    36  34  93 SE5       29.79F WCI  32
PHILLIPSBURG   PTCLDY    41  39  93 SE5       29.82F
SMITH CENTER   CLEAR     37  36  93 SE10      29.83F WCI  30
RUSSELL        CLEAR     41  37  86 SE14      29.83F
CONCORDIA      CLOUDY    42  36  79 S10       29.87F
SALINA         CLEAR     46  39  76 S14       29.89F
TOPEKA         CLEAR     39  34  82 SE3       29.95F



USA.gov is the U.S. government's official web portal to all federal, state and local government web resources and services.